Location: ?????
(44.4284°N, 135.2222°E)
Time: 05:48:42
(UTC+00:00)

Cosmos 1241 Rocket - Pass Details

Date: 19 May 2025
Orbit: 930 x 1016 km, 65.8° (Epoch: 15 June)

Event Time Altitude Azimuth Distance (km) Brightness Sun altitude
Rises 15:46:08 0° 325° (NW) 3,735 8.1 -24.6°
Reaches altitude 10° 15:48:45 10° 323° (NW) 2,771 7.4 -24.5°
Maximum altitude 15:55:14 74° 241° (WSW) 1,023 4.4 -24.2°
Enters shadow 15:56:55 51° 172° (S) 1,219 4.6 -24.1°
